Regional Weather Roundup
Issued by NWS Little Rock, AR

Home | Current Version | Previous Version | Graphics & Text | Print | Product List | Glossary On
Versions: 1 2 3 4 5 6 7 8 9 10 11 12 13 14 15 16 17 18 19 20 21 22 23 24 25 26 27 28 29 30 31 32 33 34 35 36 37 38 39 40 41 42 43 44 45 46 47 48 49 50
000
ASUS44 KLZK 060105
RWRLZK

WEATHER ROUNDUP FOR ARKANSAS
NATIONAL WEATHER SERVICE LITTLE ROCK AR
800 PM CDT TUE MAY 05 2015

NOTE: "FAIR" INDICATES FEW OR NO CLOUDS BELOW 12,000 FEET WITH NO
SIGNIFICANT WEATHER AND/OR OBSTRUCTIONS TO VISIBILITY.

ARZ001-003-010-029-060200-
NORTHWEST ARKANSAS

CITY           SKY/WX    TMP DP  RH WIND       PRES   REMARKS
FAYETTEVILLE   MOCLDY    73  59  61 SE12      30.03S
FORT SMITH     PTCLDY    79  52  38 SE7G17    29.99R
HARRISON       MOCLDY    73  55  53 SE8       30.07F
BENTONVILLE    PTCLDY    72  54  53 SE9       30.04S
ROGERS         PTCLDY    74  53  48 SE9       30.04S
SILOAM SPGS    MOCLDY    72  54  53 SE9       30.03R
HIGHFILL       MOCLDY    75  54  47 SE16G23   30.02R
SPRINGDALE     MOCLDY    73  54  49 SE15G26   30.05S
$$

ARZ004-005-016-060200-
NORTH CENTRAL ARKANSAS

CITY           SKY/WX    TMP DP  RH WIND       PRES   REMARKS
BATESVILLE     CLEAR     75  52  43 SE5       30.09S
FLIPPIN        PTCLDY    75  54  46 SE7       30.06S
MTN HOME       PTCLDY    73  54  51 SE3       30.08S
$$

ARZ040-041-060200-
WEST CENTRAL ARKANSAS

CITY           SKY/WX    TMP DP  RH WIND       PRES   REMARKS
MENA           MOCLDY    77  55  47 SE3       30.03R
MOUNT IDA      PTCLDY    77  53  43 SE7G17    30.02R
$$

ARZ009-017-025-026-028-060200-
NORTHEAST ARKANSAS

CITY           SKY/WX    TMP DP  RH WIND       PRES   REMARKS
CORNING          N/A     77  54  44 SE9       30.11R
JONESBORO      CLEAR     76  49  38 S8        30.10R
NEWPORT        CLEAR     76  51  41 SE10      30.11R
WALNUT RIDGE   CLEAR     77  48  36 S10       30.10R
BLYTHEVILLE    CLEAR     76  54  46 S7        30.12R
$$

ARZ022-023-033-042-044-060200-
CENTRAL ARKANSAS

CITY           SKY/WX    TMP DP  RH WIND       PRES   REMARKS
LITTLE ROCK    MOCLDY    76  55  48 SE7       30.06S
N LITTLE ROCK  MOCLDY    79  58  48 SE7       30.06
JACKSONVILLE   CLEAR     77  56  48 SE7       30.06F
SEARCY         CLEAR     73  54  51 SE6       30.09S
HOT SPRINGS    PTCLDY    78  55  44 SE7       30.04S
RUSSELLVILLE   PTCLDY    76  56  49 E6        30.03F
CLINTON        FAIR      73  61  64 CALM      30.08F
$$

ARZ036-060200-
EAST ARKANSAS

CITY           SKY/WX    TMP DP  RH WIND       PRES   REMARKS
WEST MEMPHIS   CLEAR     72  55  55 SE6       30.11R
$$

ARZ050-053-066-070-073-060200-
SOUTHWEST ARKANSAS

CITY           SKY/WX    TMP DP  RH WIND       PRES   REMARKS
ARKADELPHIA    FAIR      74  63  68 CALM      30.04S
CAMDEN         PTCLDY    75  57  53 CALM      30.04S
TEXARKANA      MOCLDY    75  62  64 SE3       30.01R
EL DORADO      CLEAR     76  57  51 E7        30.04S
DE QUEEN       PTCLDY    76  60  57 SE5       29.99R
$$

ARZ056-057-069-060200-
SOUTHEAST ARKANSAS

CITY           SKY/WX    TMP DP  RH WIND       PRES   REMARKS
PINE BLUFF     PTCLDY    76  57  51 SE9       30.07S
STUTTGART      CLEAR     79  54  41 SE8       30.09S
MONTICELLO     CLEAR     77  57  50 SE3       30.07S

$$





USA.gov is the U.S. government's official web portal to all federal, state and local government web resources and services.